Theta_e
320 320 322 318 314 311 314 316 313 315 314 309 310 311 311 309 317 318 309 310 311 314 320 325 328 332 334 336 336 337 338 338 338 339 338 338 337 337 338 338 338 338 338 339 339 340 339 337 335
319 320 320 309 312 313 313 312 314 313 309 306 307 309 309 311 307 308 309 306 307 310 316 322 325 326 328 330 331 332 334 335 336 336 336 337 337 338 338 338 337 337 337 339 339 340 339 337 335
319 319 315 309 309 314 313 312 312 310 307 309 309 306 307 308 306 306 302 303 302 304 311 315 316 317 318 320 322 323 327 330 330 331 333 333 333 335 336 336 336 336 336 337 338 339 338 335 335
317 314 306 310 314 313 313 312 311 309 308 307 306 307 305 304 306 304 301 301 300 300 301 306 310 311 311 312 313 314 317 319 322 325 325 326 328 330 330 333 334 334 334 336 337 337 336 335 330
313 307 311 311 313 312 310 311 308 311 309 308 308 306 305 303 302 300 300 299 299 299 298 298 298 304 306 307 308 308 310 312 314 314 316 319 323 325 327 327 329 331 333 334 335 335 335 333 331
312 307 311 313 312 312 311 310 309 309 308 307 306 304 304 303 300 300 299 299 298 297 297 296 296 296 298 301 303 304 305 307 307 307 308 309 308 314 318 318 320 324 327 331 333 333 332 331 330
312 310 311 310 312 313 312 308 308 307 307 308 303 304 302 301 300 300 299 298 298 297 296 296 296 296 295 295 295 297 299 300 301 301 297 297 299 308 304 305 312 313 320 326 328 330 331 329 329
307 310 312 310 311 314 310 309 307 308 309 303 303 304 301 300 300 299 299 298 296 296 295 294 294 294 294 294 294 294 294 294 295 295 295 295 295 296 297 297 299 305 308 316 321 326 328 330 331
309 313 314 311 310 313 309 310 304 301 303 301 300 301 301 301 299 297 296 295 293 294 294 294 293 294 294 293 293 293 294 294 294 295 295 295 295 294 294 295 295 296 298 303 311 318 323 326 327
309 311 314 310 309 313 311 310 305 305 303 302 299 298 299 299 298 296 295 294 293 293 293 293 293 293 293 293 293 293 293 294 294 294 294 294 293 293 293 293 294 294 295 297 301 306 313 318 322
310 309 314 313 311 311 312 308 304 304 304 301 299 297 296 296 296 295 294 294 293 293 293 292 293 293 293 293 293 293 293 293 293 293 293 293 293 293 292 293 293 293 294 295 296 296 297 302 306
314 312 312 313 313 310 311 305 307 303 307 302 298 297 294 293 293 294 293 293 293 293 293 292 292 292 292 292 292 292 292 292 292 292 292 292 292 292 292 291 292 292 293 294 295 295 295 297 298
313 313 312 311 310 309 308 309 306 304 302 297 295 294 293 293 293 294 294 293 293 293 292 292 292 291 292 291 291 291 291 291 291 291 292 292 291 291 291 290 291 291 291 292 293 294 295 297 297
311 311 310 309 310 309 310 309 306 304 295 295 295 294 292 292 293 293 293 292 292 293 292 292 291 291 291 291 291 290 291 290 290 290 290 290 290 289 289 290 289 290 290 291 292 295 295 296 295
310 311 309 309 310 310 308 309 306 302 295 295 294 292 292 292 293 293 293 292 292 292 292 291 291 291 290 290 290 290 290 289 289 289 289 289 289 288 288 287 287 288 287 288 289 292 295 297 296
310 308 312 311 309 309 309 311 308 298 296 296 293 291 291 291 292 293 293 292 291 292 292 291 290 290 290 290 289 289 289 288 288 287 287 288 288 287 287 287 286 286 286 286 288 294 295 295 296
308 313 311 309 307 309 307 309 307 297 296 297 294 293 292 290 290 292 292 291 291 291 291 290 290 290 289 288 288 288 287 287 287 287 286 286 286 286 286 285 285 284 284 285 285 289 294 296 297
315 313 309 307 309 308 308 307 308 300 297 298 296 294 292 291 290 291 291 290 290 291 290 289 289 289 289 288 287 287 287 287 286 286 285 285 286 285 286 286 286 285 283 283 284 285 286 290 296
311 309 307 306 305 308 307 307 308 306 298 298 296 293 293 292 290 291 290 290 290 290 290 289 288 288 288 287 287 286 286 287 286 286 285 285 285 284 285 285 284 284 283 283 283 285 287 289 293
308 309 307 306 305 305 306 306 306 306 302 300 299 295 294 292 288 289 289 289 290 290 289 289 288 287 287 286 285 284 284 285 285 284 284 284 283 283 283 283 282 282 281 282 283 286 288 290 292
307 307 307 308 304 302 301 304 302 303 302 301 299 298 295 293 290 288 288 289 289 289 289 289 287 286 286 285 284 284 283 282 282 282 283 282 282 281 282 282 282 281 280 281 283 281 282 285 288
310 305 306 306 304 306 304 311 304 305 304 301 301 296 295 292 290 289 288 288 289 289 289 288 287 286 285 285 283 282 281 280 281 281 281 281 281 281 281 280 280 279 280 279 279 280 281 283 285
308 304 304 304 304 301 303 302 302 299 303 304 302 299 296 292 290 289 288 288 289 289 288 288 287 285 284 283 282 281 280 280 280 279 279 278 279 279 280 279 279 279 279 278 277 278 279 281 283
303 305 301 297 299 305 305 304 304 301 302 302 300 297 295 290 289 289 288 289 289 288 288 287 286 284 283 282 282 280 279 279 278 279 277 278 277 278 278 278 278 278 277 277 276 277 280 279 280
304 306 311 309 305 311 300 300 307 303 300 301 301 296 293 289 288 287 287 287 288 288 287 287 285 283 282 282 281 279 278 278 277 277 276 276 276 276 277 277 277 277 276 276 276 277 276 276 277
303 306 311 308 308 309 298 307 308 301 299 293 291 290 291 288 288 288 288 287 287 287 287 286 284 282 281 281 280 279 278 277 276 276 275 274 275 275 276 276 276 276 276 276 276 276 276 277 278
305 306 305 306 288 300 309 304 303 301 298 294 291 292 291 288 288 288 287 287 287 287 286 285 283 282 280 279 278 278 277 276 275 275 274 273 274 274 275 275 275 275 275 275 275 275 275 275 276
301 301 305 304 308 302 307 307 309 309 303 301 293 292 290 287 287 287 287 286 287 287 286 284 282 281 279 278 277 276 276 275 274 274 273 273 273 273 273 273 274 274 274 274 274 274 274 274 275
299 302 300 302 304 308 305 310 305 307 305 304 297 293 290 288 287 287 287 286 287 286 285 283 281 280 278 276 275 275 275 274 274 272 272 272 272 272 272 272 272 273 273 273 273 273 273 274 275
301 302 303 308 307 302 304 312 302 304 303 299 296 293 289 288 287 286 286 285 285 284 284 282 280 278 276 275 274 275 274 273 271 271 271 271 271 271 271 271 271 271 271 271 272 272 273 273 273
Wind_Speed
3 3 2 3 4 5 1 2 1 3 2 4 3 7 8 4 2 3 6 8 10 11 13 13 12 13 12 14 12 10 6 4 7 10 11 13 13 13 13 12 12 12 12 13 14 14 14 16 16
2 3 2 2 5 3 3 4 4 2 6 7 6 2 6 2 1 3 4 9 11 11 12 16 17 18 18 18 16 13 13 13 15 13 12 12 13 15 16 16 16 15 15 15 15 16 16 17 18
3 2 3 4 3 3 4 3 5 2 5 1 4 5 3 2 1 4 4 8 13 15 15 18 18 19 20 20 17 15 11 8 13 17 16 18 17 16 14 16 16 17 18 18 17 17 19 19 18
0 5 4 4 2 3 2 4 4 7 1 6 4 7 2 1 2 7 9 10 14 17 17 17 18 20 22 22 22 21 20 18 17 13 18 18 20 21 19 17 17 18 19 20 20 19 20 21 21
4 3 4 3 2 1 3 1 8 4 3 2 2 6 5 2 11 12 11 11 14 15 16 18 18 19 20 21 21 21 20 20 19 16 14 15 18 20 21 20 19 19 19 20 21 21 22 22 22
4 3 4 1 3 2 3 2 5 3 3 4 5 7 5 12 12 11 10 11 12 13 15 16 18 20 21 21 21 21 21 20 20 21 20 18 16 21 22 23 20 20 20 21 21 24 25 24 24
6 4 5 5 3 2 4 6 7 6 6 5 9 7 2 8 12 11 10 10 11 11 12 14 16 17 18 21 21 21 21 20 20 22 22 19 16 18 21 22 20 24 18 16 16 20 24 27 28
4 4 4 3 5 5 5 3 3 3 3 3 3 6 5 11 18 13 12 10 9 9 11 13 15 17 19 20 21 21 21 21 20 21 23 24 21 21 23 24 23 23 23 20 19 18 20 23 27
3 4 2 6 7 5 6 4 1 1 5 1 2 4 5 29 21 16 14 11 10 11 13 13 15 16 17 18 19 19 20 20 19 20 21 21 23 25 26 26 26 25 24 22 21 21 20 20 22
4 3 6 4 4 3 4 4 8 5 3 4 1 1 17 24 20 16 12 10 9 11 11 12 14 15 16 17 17 18 18 19 18 17 18 21 23 25 25 28 28 27 26 25 23 23 24 22 21
1 3 2 3 4 3 2 3 6 7 5 9 11 13 11 12 15 15 12 10 9 9 10 11 11 13 14 15 15 15 16 16 18 18 19 19 21 25 28 29 32 31 29 28 28 28 29 28 28
2 1 2 3 3 2 3 7 5 9 5 1 8 14 11 9 14 16 14 12 9 9 9 9 10 11 11 12 13 14 15 17 17 18 19 22 24 26 28 31 32 32 31 30 30 30 30 33 32
2 1 3 3 5 5 4 5 8 9 3 3 12 12 10 11 17 16 15 12 9 9 7 7 7 9 8 10 11 12 14 16 17 18 18 19 23 25 27 29 29 32 32 31 32 32 31 31 35
0 3 5 6 5 4 4 2 3 2 5 7 12 11 9 9 15 12 12 11 9 10 8 6 5 6 7 9 10 13 13 15 16 17 18 19 22 22 25 26 28 28 29 31 34 34 34 34 35
1 5 6 3 3 4 4 6 10 3 7 9 9 7 8 12 19 21 19 14 10 9 7 4 4 5 7 8 10 12 12 14 16 16 17 20 23 24 26 26 27 26 30 30 29 33 35 33 35
4 4 5 1 3 2 3 10 7 7 11 11 10 9 9 10 17 19 18 14 12 12 9 5 3 1 4 5 8 9 10 13 14 16 17 21 25 26 28 28 29 28 30 28 25 26 30 36 32
6 4 3 8 6 3 5 11 6 7 9 10 13 13 13 10 14 20 20 17 15 14 12 7 5 3 1 4 8 9 10 13 14 16 19 23 24 27 28 28 30 31 29 29 26 24 25 28 30
5 4 5 7 2 4 5 17 14 7 12 18 16 14 14 14 14 25 24 20 17 15 12 7 5 3 3 6 11 10 12 15 14 16 20 23 25 28 29 31 34 35 32 29 27 26 29 29 30
4 4 8 6 5 4 10 14 21 9 11 15 12 13 17 18 13 27 26 21 17 16 12 7 3 2 5 7 13 13 15 17 17 16 21 23 25 27 28 28 33 34 32 30 29 28 27 26 25
4 3 8 8 1 6 11 17 16 17 11 13 16 17 20 16 13 22 29 23 20 17 12 8 3 4 5 7 10 10 16 12 18 17 23 23 26 26 27 26 31 32 28 22 22 20 24 26 22
4 5 5 8 6 5 8 9 6 6 7 7 10 12 16 20 19 13 20 26 21 17 14 10 4 4 5 8 11 14 13 12 9 21 26 26 27 26 25 26 29 31 25 22 22 29 25 29 25
4 5 3 4 5 4 5 10 4 7 11 6 9 11 14 17 16 15 21 24 23 18 14 11 6 5 6 8 11 12 13 15 18 24 26 28 27 26 27 27 27 29 23 28 25 22 23 24 29
7 3 3 1 3 3 4 5 7 3 8 18 9 13 14 16 20 19 21 25 25 18 15 11 7 6 6 8 10 13 16 18 22 24 27 28 28 28 28 27 28 28 27 28 29 25 26 23 26
4 2 4 4 1 2 6 7 4 6 8 7 5 6 10 12 16 15 24 30 26 19 14 12 7 6 7 9 11 13 16 19 24 28 29 29 30 30 29 27 30 30 29 28 28 27 23 26 29
3 5 3 5 2 8 4 3 12 9 11 10 10 5 8 11 14 15 17 20 26 21 16 12 8 8 8 10 12 14 16 19 22 26 26 28 27 26 28 30 29 28 27 29 29 26 30 32 31
6 8 6 8 4 9 2 9 7 11 9 6 5 8 8 10 13 17 17 22 26 23 18 14 7 7 9 11 13 15 17 20 23 26 28 29 29 29 31 31 29 30 29 29 30 31 30 29 28
5 6 3 5 2 3 5 8 7 10 9 8 8 7 9 10 14 16 16 21 26 22 18 13 7 7 8 11 13 17 18 21 24 28 29 28 30 33 31 32 33 32 31 30 30 31 32 32 32
4 3 4 2 3 6 10 14 13 13 9 10 8 10 9 9 11 13 14 22 26 21 17 10 7 8 9 11 14 16 20 22 25 27 29 29 32 33 33 34 33 33 32 31 30 32 32 33 33
3 3 1 2 5 6 4 13 5 8 10 10 11 11 10 12 14 14 13 23 27 21 17 10 7 7 9 11 15 18 21 24 26 28 29 29 30 33 33 34 35 34 33 31 32 33 34 35 33
2 8 12 7 7 3 3 22 1 6 9 8 9 11 8 10 12 14 13 19 23 23 18 12 7 6 8 12 15 19 21 23 26 27 28 29 30 31 32 33 36 36 35 33 33 34 33 33 33
Wind_Direction
136 160 150 41 58 67 151 215 200 184 93 343 38 109 126 54 92 188 122 29 37 37 39 42 29 30 32 39 39 40 27 334 320 318 316 312 310 306 301 295 297 300 303 309 311 311 306 301 299
114 126 69 76 82 67 264 268 183 152 149 156 76 48 53 85 18 94 95 39 49 52 59 60 51 43 44 45 42 40 30 24 22 10 352 334 318 311 307 300 298 298 300 301 303 305 303 302 302
138 92 79 87 98 156 181 211 154 75 151 103 99 59 97 138 221 108 103 81 68 62 67 61 53 45 45 44 41 36 30 19 21 19 14 10 4 349 324 311 306 301 302 301 299 299 298 300 298
189 24 40 84 148 220 203 183 139 132 104 59 115 82 68 331 156 138 121 95 80 69 65 64 50 47 45 43 41 38 34 30 27 13 18 12 10 7 358 344 325 310 302 298 297 295 292 294 295
59 57 52 65 299 257 235 225 147 139 115 108 149 178 147 98 135 133 113 92 77 69 63 60 57 50 45 43 41 38 36 35 31 20 3 3 15 11 8 2 353 339 318 305 298 293 292 294 293
45 95 66 202 259 258 273 172 123 119 149 163 95 134 189 157 152 134 113 95 81 72 62 59 54 50 47 44 41 38 36 34 29 25 22 18 7 14 11 6 3 358 347 338 312 295 292 293 291
115 87 171 174 212 278 205 149 154 162 157 206 154 139 206 177 166 147 127 104 87 76 67 60 55 51 47 43 41 37 34 33 32 28 24 17 8 11 4 360 357 359 339 316 313 316 297 296 294
104 95 126 190 191 243 193 106 124 163 190 79 152 186 209 192 168 149 138 127 107 92 78 65 59 54 49 44 41 38 34 30 28 25 23 19 13 4 357 354 352 351 345 336 330 312 314 299 291
133 60 177 197 159 237 167 143 47 39 125 186 247 175 221 163 163 153 145 132 106 81 67 57 52 51 48 46 42 36 33 29 26 24 23 15 10 4 359 357 353 346 336 327 328 326 319 316 306
77 103 219 190 199 230 175 165 167 155 163 230 272 131 149 158 168 167 159 138 105 79 65 49 43 45 44 43 39 35 32 31 31 28 22 15 11 7 358 354 353 347 341 334 334 316 314 316 322
134 171 219 251 222 208 192 148 168 147 219 205 199 180 168 162 170 166 155 139 119 95 72 54 47 41 38 36 34 33 29 28 29 27 21 14 10 4 360 355 352 349 346 338 331 326 321 317 313
31 39 241 294 234 149 251 124 228 199 217 336 199 164 160 166 176 170 160 152 135 109 76 59 47 38 38 34 29 25 23 25 21 20 18 15 11 6 0 355 353 350 346 339 332 327 323 317 310
96 303 309 288 288 247 119 227 239 241 262 106 137 152 169 175 180 176 164 151 141 126 102 75 53 42 36 30 29 25 24 21 16 16 20 17 9 5 1 354 350 346 342 337 328 322 319 313 311
264 267 257 260 248 248 208 243 354 269 118 133 156 177 176 178 177 164 165 159 153 145 121 104 67 45 32 28 21 20 18 15 12 13 16 16 11 8 0 356 350 345 341 332 325 319 314 308 305
291 324 317 210 206 245 161 280 239 143 143 163 183 190 183 197 185 184 178 168 161 153 136 114 71 32 18 16 11 7 7 5 5 5 10 9 11 3 0 356 350 343 336 330 320 316 313 306 304
24 49 3 218 156 4 128 271 264 171 161 198 201 200 198 208 201 192 177 169 163 166 161 145 129 54 8 358 358 353 355 356 358 358 1 3 4 3 358 354 349 338 335 335 326 308 303 303 301
8 283 294 313 201 131 171 271 251 170 193 212 210 207 206 208 204 191 180 175 173 175 171 168 183 191 322 339 342 338 344 350 351 351 354 358 358 358 353 349 347 341 336 330 326 311 301 294 292
243 284 263 248 230 195 224 263 268 208 201 220 216 208 208 207 205 191 184 179 179 178 178 176 181 219 313 322 336 335 335 342 343 347 353 352 351 350 348 346 345 343 333 330 326 312 306 289 287
165 199 242 252 242 246 250 251 273 255 218 234 220 207 211 212 197 194 188 183 178 181 184 181 189 264 284 322 341 337 329 333 336 340 348 347 344 342 342 341 339 339 331 327 321 309 299 292 288
165 225 263 279 300 192 267 259 263 257 244 223 220 215 215 202 189 191 189 185 185 188 188 194 222 266 279 309 324 324 323 319 331 333 340 341 337 336 336 335 332 333 321 303 303 308 304 293 291
212 196 236 240 326 255 298 267 242 277 266 241 221 221 214 206 198 190 190 192 190 189 195 203 228 288 279 296 317 325 334 323 320 327 335 335 331 330 331 330 328 324 307 299 297 296 295 289 288
244 211 234 286 3 258 25 291 251 247 276 246 235 212 212 203 200 189 189 193 192 194 195 205 228 286 280 293 314 327 324 316 321 326 327 326 328 327 327 324 318 314 301 299 305 295 283 285 284
225 140 168 146 221 346 236 275 262 18 262 266 253 226 216 203 193 189 189 190 195 193 196 204 233 291 288 300 317 324 321 324 324 324 324 323 325 324 322 316 312 312 305 300 301 286 280 271 276
126 97 61 59 71 289 222 192 216 185 209 253 247 231 207 198 199 193 184 189 193 190 196 204 240 288 298 311 323 327 319 327 326 329 325 321 318 319 314 308 312 311 300 290 293 284 274 280 273
106 76 316 324 348 239 165 217 254 229 221 221 251 283 222 192 187 184 181 183 186 190 197 205 245 287 306 320 326 325 321 325 324 324 317 313 307 300 302 309 305 297 289 285 287 277 280 277 269
176 170 169 233 233 280 344 246 264 226 253 253 241 255 236 189 192 196 187 182 185 193 197 202 241 284 309 321 325 325 328 331 324 320 316 304 298 301 305 301 296 292 287 284 280 278 277 277 276
183 189 168 100 113 339 240 273 280 261 275 262 258 251 235 198 196 194 182 183 189 192 197 205 247 281 309 322 326 329 331 330 324 323 317 304 307 306 301 295 292 290 286 282 282 276 275 273 273
177 170 78 11 257 264 267 276 253 242 237 241 238 235 233 201 199 193 184 183 191 193 191 207 251 292 310 323 329 325 330 331 327 322 316 311 307 302 298 295 292 290 286 284 282 275 273 273 271
132 213 129 163 163 204 275 268 203 221 189 221 224 226 215 200 200 195 187 180 188 188 189 211 244 282 310 324 323 329 333 330 325 318 315 310 304 301 295 293 291 289 287 286 281 274 274 272 270
221 199 176 202 228 252 141 271 188 201 207 220 227 233 218 202 194 192 184 168 178 184 192 211 238 283 310 312 324 331 330 329 324 317 313 310 302 298 295 295 295 293 289 286 281 278 274 272 271